Location: Newark
(49.8348°N, 24.0280°E)
Time: 01:55:47
(UTC+00:00)

Explorer 7 - Pass Details

Date: 18 January 2020
Orbit: 485 x 679 km, 50.3° (Epoch: 21 February)

Event Time Altitude Azimuth Distance (km) Brightness Sun altitude
Rises 23:44:47 0° 225° (SW) 2,539 - -57.5°
Reaches altitude 10° 23:47:02 10° 216° (SW) 1,664 - -57.3°
Maximum altitude 23:50:28 35° 150° (SSE) 816 - -57.0°
Drops below altitude 10° 23:53:59 10° 84° (E) 1,713 - -56.7°
Sets 23:56:20 0° 75° (ENE) 2,625 - -56.4°
